Skip Page Navigation
NASA JPL Caltech
NASA Logo - Jet Propulsion Laboratory + View the NASA Portal
+ Center for Near-Earth Object Studies
JPL Home Earth Solar System Stars & Galaxies Technology
JPL Solar System Dynamics
BODIES ORBITS EPHEMERIDES TOOLS PHYSICAL DATA DISCOVERY FAQ SITE MAP
JPL Small-Body Database Browser
Search: [ help ]  
266971 (2010 VE100)
Classification: Main-belt Asteroid          SPK-ID: 2266971
Ephemeris | Orbit Diagram | Orbital Elements | Mission Design | Physical Parameters | Discovery Circumstances | Close-Approach Data ]

[ hide orbit diagram ]

For accurate long-term ephemerides, please instead use our Horizons system.This orbit viewer was implemented using two-body methods, and hence should not be used for determining accurate long-term trajectories (over several years or decades) or planetary encounter circumstances.


[ revert to old Java-based viewer ]

Orbital Elements at Epoch 2459000.5 (2020-May-31.0) TDB
Reference: JPL 14 (heliocentric ecliptic J2000)
 Element Value Uncertainty (1-sigma)   Units 
e .003513066426462095 6.066e-08  
a 3.106010937458398 5.6403e-08 au
q 3.095099314713789 2.1333e-07 au
i 9.179320822064449 6.462e-06 deg
node 241.0663372455433 5.5834e-05 deg
peri 182.9593123018369 0.0014291 deg
M 260.791306125849 0.0014316 deg
tp 2459551.498135377412
(2021-Dec-02.99813538)
0.0079565 TDB
period 1999.414778985929
5.47
5.4462e-05
1.491e-07
d
yr
n .1800526853075409 4.9044e-09 deg/d
Q 3.116922560203007 5.6601e-08 au
  Orbit Determination Parameters
   # obs. used (total)      221  
   data-arc span      7041 days (19.28 yr)  
   first obs. used      2001-02-17  
   last obs. used      2020-05-29  
   planetary ephem.      DE431  
   SB-pert. ephem.      SB431-N16  
   condition code      0  
   norm. resid. RMS      .60506  
   source      ORB  
   producer      Otto Matic  
   solution date      2020-Jun-24 04:57:49  

Additional Information
 Earth MOID = 2.10316 au 
 Jupiter MOID = 1.90824 au 
 T_jup = 3.201 
[ show covariance matrix ]

Ephemeris | Orbit Diagram | Orbital Elements | Mission Design | Physical Parameters | Discovery Circumstances | Close-Approach Data ]

Physical Parameter Table
Parameter Symbol Value Units Sigma Reference Notes
absolute magnitude H 15.3   n/a MPO437228  

266971 (2010 VE100)          Discovered 2001-Feb-17 by NEAT at Palomar
Reference: 20110218/Numbers.arcLast Updated: 2011-02-22

[ show close-approach data ]
Alternate Designations
 2010 VE100 = 2009 TB2 
Ephemeris | Orbit Diagram | Orbital Elements | Mission Design | Physical Parameters | Discovery Circumstances | Close-Approach Data ]
ABOUT SSD CREDITS/AWARDS PRIVACY/COPYRIGHT GLOSSARY LINKS
FirstGov 2020-Jul-10 00:18 UT
(server date/time)  
NASA Home Page
Site Manager:   Ryan S. Park
Webmaster  Alan B. Chamberlin